Regional Weather Roundup
Issued by NWS

Home | Current Version | Previous Version | Text Only | Print | Product List | Glossary Off
Versions: 1 2 3 4 5 6 7 8 9 10 11 12 13 14 15 16 17 18 19 20 21 22 23 24 25 26 27 28 29 30 31 32 33 34 35 36 37 38 39 40 41 42 43 44 45 46 47 48 49 50

000
ASUS43 KTOP 281308
RWRKS

WEATHER ROUNDUP FOR KANSAS
NATIONAL WEATHER SERVICE GOODLAND KS
700 AM CST WED JAN 28 2015

NOTE:  "FAIR" INDICATES FEW OR NO CLOUDS BELOW 12,000 FEET WITH NO
SIGNIFICANT WEATHER AND/OR OBSTRUCTIONS TO VISIBILITY.

KSZ001>006-013>018-027>032-041>047-281400-
NORTHWEST KANSAS

CITY           SKY/WX    TMP DP  RH WIND       PRES   REMARKS
GOODLAND       PTCLDY    40  30  67 NW10      29.93R WCI  33
HAYS           CLEAR     41  28  60 SW10      29.83S
HILL CITY      CLEAR     36  28  73 W12       29.84R WCI  28
RUSSELL        CLEAR     41  34  76 SW13      29.80S
$$

KSZ061>065-074>080-084>089-281400-
SOUTHWEST KANSAS

CITY           SKY/WX    TMP DP  RH WIND       PRES   REMARKS
DODGE CITY     PTCLDY    44  34  67 SW12      29.87R
ELKHART          N/A     48  32  54 W12         N/A
GARDEN CITY    MOCLDY    35  32  88 W7        29.88R
LIBERAL        PTCLDY    37  30  75 W9        29.93R
PRATT          CLEAR     41  32  70 S12       29.88R
$$

KSZ066>073-081>083-090>101-281400-
SOUTHEAST KANSAS

CITY           SKY/WX    TMP DP  RH WIND       PRES   REMARKS
CHANUTE        CLEAR     46  36  68 S13       29.98S
COFFEYVILLE    CLEAR     45  35  68 S7        30.00R
HUTCHINSON     CLEAR     40  33  76 SE7       29.88S
MEDICINE LODGE   N/A     45  35  68 S7        29.89S
NEWTON         CLEAR     45  32  61 S12       29.91S
PARSONS        CLEAR     46  36  68 S5        30.00S
WICHITA INTL   PTCLDY    40  34  79 S9        29.90F
WICHITA JABRA  CLEAR     41  35  79 S8        29.91S
WICHITA MCCONL CLEAR     47  37  69 S13       29.91F
WINFIELD       CLEAR     50  32  50 S13       29.94S
$$

KSZ007>012-019>026-033>040-048>060-102>105-281400-
NORTHEAST KANSAS

CITY           SKY/WX    TMP DP  RH WIND       PRES   REMARKS
CONCORDIA      CLEAR     40  33  76 S7        29.81F
EMPORIA        CLEAR     41  34  76 S18       29.91S
LAWRENCE       CLEAR     35  28  75 E8        29.94S
MANHATTAN      CLEAR     29  28  96 CALM      29.87F
MARYSVILLE     CLEAR     37  32  81 S9        29.85S
OLATHE IND     CLEAR     41  31  67 S9        29.96R
OLATHE EXE     CLEAR     38  31  76 S9        29.95S
SALINA         CLEAR     40  33  76 S8        29.85F
TOPEKA BILLARD CLEAR     33  28  81 E5        29.92F
TOPEKA FORBES  CLEAR     43  33  68 S9        29.91F
$$



USA.gov is the U.S. government's official web portal to all federal, state and local government web resources and services.